When you browse on this site, cookies collect data to enhance your experience and personalize the content and advertising you see.
Visit our Privacy Policy to learn more. By continuing to use the site, you agree to this use of cookies and data.
  • In Hungary
  • List of Countries
  • For 7 days
  • Water Temperature
  • Satellite Maps
  • Weather Map
  • News
  • Weather Widgets
  • user-avatar
    Login

    Hourly Weather Pomorie

    Today, 17 November, Saturday

    Time Temperature Precipitation Wind Pressure Humidity
    00:00 0°C° 0 mm 5 mps 772 mmHg 79%
    01:00 0°C° 0 mm 5 mps 772 mmHg 80%
    02:00 0°C° 0 mm 5 mps 772 mmHg 81%
    03:00 0°C° 0 mm 5 mps 772 mmHg 81%
    04:00 0°C° 0 mm 5 mps 772 mmHg 81%
    05:00 0°C° 0 mm 5 mps 772 mmHg 82%
    06:00 0°C° 0 mm 5 mps 772 mmHg 82%
    07:00 0°C° 0 mm 5 mps 772 mmHg 83%
    08:00 0°C° 0 mm 5 mps 772 mmHg 83%
    09:00 +1°C° 0 mm 5 mps 772 mmHg 79%
    10:00 +2°C° 0 mm 5 mps 772 mmHg 76%
    11:00 +3°C° 0 mm 6 mps 772 mmHg 73%
    12:00 +4°C° 0 mm 6 mps 771 mmHg 73%
    13:00 +4°C° 0 mm 6 mps 771 mmHg 73%
    14:00 +4°C° 0 mm 6 mps 771 mmHg 72%
    15:00 +4°C° 0.1 mm 7 mps 771 mmHg 75%
    16:00 +3°C° 0.1 mm 7 mps 771 mmHg 78%
    17:00 +3°C° 0.1 mm 7 mps 770 mmHg 81%
    18:00 +3°C° 0.2 mm 7 mps 770 mmHg 83%
    19:00 +3°C° 0.2 mm 7 mps 770 mmHg 84%
    20:00 +3°C° 0.2 mm 7 mps 770 mmHg 85%
    21:00 +4°C° 0.2 mm 7 mps 770 mmHg 86%
    22:00 +4°C° 0.2 mm 7 mps 770 mmHg 87%
    23:00 +4°C° 0.2 mm 6 mps 770 mmHg 88%

    Tomorrow, 18 November, Sunday

    Time Temperature Precipitation Wind Pressure Humidity
    00:00 +4°C° 0.2 mm 6 mps 770 mmHg 88%
    01:00 +4°C° 0.2 mm 6 mps 770 mmHg 88%
    02:00 +4°C° 0.2 mm 6 mps 770 mmHg 87%
    03:00 +4°C° 0.3 mm 6 mps 770 mmHg 87%
    04:00 +4°C° 0.3 mm 6 mps 769 mmHg 87%
    05:00 +4°C° 0.3 mm 7 mps 769 mmHg 87%
    06:00 +4°C° 0.2 mm 7 mps 769 mmHg 87%
    07:00 +4°C° 0.2 mm 7 mps 769 mmHg 87%
    08:00 +4°C° 0.2 mm 7 mps 769 mmHg 86%
    09:00 +5°C° 0.1 mm 7 mps 769 mmHg 84%
    10:00 +5°C° 0.1 mm 7 mps 769 mmHg 83%
    11:00 +6°C° 0.1 mm 7 mps 769 mmHg 81%
    12:00 +6°C° 0.1 mm 7 mps 768 mmHg 80%
    13:00 +6°C° 0.1 mm 7 mps 767 mmHg 79%
    14:00 +8°C° 0.1 mm 7 mps 767 mmHg 79%
    15:00 +8°C° 0.1 mm 6 mps 766 mmHg 80%
    16:00 +8°C° 0.1 mm 6 mps 766 mmHg 82%
    17:00 +7°C° 0.1 mm 6 mps 766 mmHg 83%
    18:00 +7°C° 0.1 mm 6 mps 765 mmHg 84%
    19:00 +6°C° 0.1 mm 7 mps 765 mmHg 85%
    20:00 +6°C° 0.1 mm 7 mps 764 mmHg 86%
    21:00 +6°C° 0.5 mm 7 mps 764 mmHg 87%
    22:00 +6°C° 0.5 mm 7 mps 763 mmHg 88%
    23:00 +6°C° 0.5 mm 7 mps 763 mmHg 88%

    Day after tomorrow, 19 November, Monday

    Time Temperature Precipitation Wind Pressure Humidity
    00:00 +6°C° 0.9 mm 7 mps 762 mmHg 89%
    01:00 +6°C° 0.9 mm 7 mps 762 mmHg 90%
    02:00 +6°C° 0.9 mm 7 mps 761 mmHg 90%
    03:00 +6°C° 1.3 mm 7 mps 760 mmHg 91%
    04:00 +6°C° 1.3 mm 7 mps 760 mmHg 92%
    05:00 +6°C° 1.3 mm 7 mps 759 mmHg 92%
    06:00 +6°C° 1.6 mm 7 mps 759 mmHg 92%
    07:00 +6°C° 1.6 mm 8 mps 759 mmHg 92%
    08:00 +7°C° 1.6 mm 8 mps 759 mmHg 92%
    09:00 +7°C° 0.4 mm 8 mps 759 mmHg 91%
    10:00 +7°C° 0.4 mm 8 mps 759 mmHg 90%
    11:00 +9°C° 0.4 mm 8 mps 759 mmHg 90%
    12:00 +9°C° 0.1 mm 7 mps 759 mmHg 90%
    13:00 +9°C° 0.1 mm 6 mps 759 mmHg 90%
    14:00 +9°C° 0.1 mm 6 mps 759 mmHg 90%
    15:00 +9°C° 0 mm 5 mps 759 mmHg 91%
    16:00 +9°C° 0 mm 5 mps 759 mmHg 91%
    17:00 +10°C° 0 mm 4 mps 760 mmHg 92%
    18:00 +10°C° 0 mm 4 mps 760 mmHg 92%
    19:00 +10°C° 0 mm 4 mps 761 mmHg 92%
    20:00 +8°C° 0 mm 4 mps 761 mmHg 92%
    21:00 +9°C° 0 mm 3 mps 761 mmHg 93%
    22:00 +9°C° 0 mm 3 mps 762 mmHg 93%
    23:00 +9°C° 0 mm 3 mps 762 mmHg 93%

    20 November, Tuesday

    Time Temperature Precipitation Wind Pressure Humidity
    00:00 +9°C° 0 mm 3 mps 763 mmHg 93%
    01:00 +9°C° 0 mm 3 mps 763 mmHg 92%
    02:00 +9°C° 0 mm 2 mps 763 mmHg 92%
    03:00 +9°C° 0 mm 2 mps 763 mmHg 92%
    04:00 +9°C° 0 mm 3 mps 763 mmHg 93%
    05:00 +10°C° 0 mm 3 mps 763 mmHg 93%
    06:00 +10°C° 0 mm 3 mps 763 mmHg 94%
    07:00 +10°C° 0 mm 4 mps 764 mmHg 95%
    08:00 +10°C° 0 mm 4 mps 764 mmHg 96%
    09:00 +11°C° 0 mm 4 mps 764 mmHg 95%
    10:00 +12°C° 0 mm 5 mps 763 mmHg 93%
    11:00 +13°C° 0 mm 5 mps 763 mmHg 92%
    12:00 +13°C° 0 mm 5 mps 763 mmHg 90%
    13:00 +14°C° 0 mm 5 mps 762 mmHg 88%
    14:00 +15°C° 0 mm 5 mps 762 mmHg 86%
    15:00 +15°C° 0 mm 5 mps 761 mmHg 87%
    16:00 +15°C° 0 mm 5 mps 761 mmHg 89%
    17:00 +14°C° 0 mm 5 mps 761 mmHg 91%
    18:00 +15°C° 0.1 mm 5 mps 761 mmHg 90%
    19:00 +15°C° 0.1 mm 5 mps 760 mmHg 89%
    20:00 +15°C° 0.1 mm 5 mps 760 mmHg 87%
    21:00 +15°C° 0.3 mm 5 mps 760 mmHg 87%
    22:00 +15°C° 0.3 mm 5 mps 760 mmHg 87%
    23:00 +15°C° 0.3 mm 5 mps 759 mmHg 87%

    21 November, Wednesday

    Time Temperature Precipitation Wind Pressure Humidity
    00:00 +15°C° 0 mm 5 mps 759 mmHg 87%
    01:00 +15°C° 0 mm 5 mps 758 mmHg 87%
    02:00 +16°C° 0 mm 5 mps 758 mmHg 88%
    03:00 +16°C° 0.1 mm 5 mps 758 mmHg 88%
    04:00 +16°C° 0.1 mm 5 mps 757 mmHg 88%
    05:00 +16°C° 0.1 mm 5 mps 757 mmHg 88%
    06:00 +16°C° 0.4 mm 5 mps 757 mmHg 88%
    07:00 +16°C° 0.4 mm 6 mps 757 mmHg 88%
    08:00 +16°C° 0.4 mm 6 mps 757 mmHg 87%
    09:00 +17°C° 0.5 mm 6 mps 757 mmHg 83%
    10:00 +18°C° 0.5 mm 7 mps 757 mmHg 78%
    11:00 +20°C° 0.5 mm 7 mps 756 mmHg 74%
    12:00 +21°C° 0.3 mm 6 mps 756 mmHg 68%
    13:00 +21°C° 0.3 mm 6 mps 756 mmHg 63%
    14:00 +22°C° 0.3 mm 5 mps 756 mmHg 57%
    15:00 +20°C° 0.3 mm 4 mps 756 mmHg 61%
    16:00 +19°C° 0.3 mm 4 mps 757 mmHg 65%
    17:00 +18°C° 0.3 mm 4 mps 757 mmHg 69%
    18:00 +17°C° 0.1 mm 4 mps 757 mmHg 72%
    19:00 +15°C° 0.1 mm 4 mps 758 mmHg 76%
    20:00 +14°C° 0.1 mm 4 mps 758 mmHg 79%
    21:00 +14°C° 0 mm 4 mps 759 mmHg 79%
    22:00 +14°C° 0 mm 3 mps 759 mmHg 79%
    23:00 +13°C° 0 mm 3 mps 760 mmHg 79%

    22 November, Thursday

    Time Temperature Precipitation Wind Pressure Humidity
    00:00 +13°C° 0 mm 3 mps 760 mmHg 79%
    01:00 +12°C° 0 mm 3 mps 760 mmHg 79%
    02:00 +12°C° 0 mm 3 mps 760 mmHg 79%
    03:00 +11°C° 0 mm 3 mps 761 mmHg 78%
    04:00 +11°C° 0 mm 3 mps 761 mmHg 78%
    05:00 +11°C° 0 mm 3 mps 761 mmHg 78%
    06:00 +12°C° 0 mm 2 mps 762 mmHg 76%
    07:00 +12°C° 0 mm 2 mps 762 mmHg 74%
    08:00 +12°C° 0 mm 2 mps 762 mmHg 73%
    09:00 +13°C° 0 mm 2 mps 763 mmHg 66%
    10:00 +15°C° 0 mm 2 mps 763 mmHg 60%
    11:00 +16°C° 0 mm 2 mps 763 mmHg 54%
    12:00 +17°C° 0 mm 2 mps 763 mmHg 53%
    13:00 +17°C° 0 mm 2 mps 763 mmHg 51%
    14:00 +18°C° 0 mm 2 mps 763 mmHg 50%
    15:00 +17°C° 0 mm 2 mps 763 mmHg 56%
    16:00 +16°C° 0 mm 2 mps 764 mmHg 63%
    17:00 +13°C° 0 mm 3 mps 764 mmHg 69%
    18:00 +14°C° 0 mm 2 mps 764 mmHg 76%
    19:00 +13°C° 0 mm 2 mps 765 mmHg 82%
    20:00 +12°C° 0 mm 2 mps 765 mmHg 88%
    21:00 +12°C° 0 mm 2 mps 765 mmHg 89%
    22:00 +12°C° 0 mm 2 mps 766 mmHg 91%
    23:00 +10°C° 0 mm 2 mps 766 mmHg 92%
    Show more